Location: Rocktram
(38.2574°N, 122.2805°W)
Time: 03:45:33
(UTC+00:00)

Cosmos 967 Rocket - Pass Details

Date: 30 March 2020
Orbit: 943 x 994 km, 65.8° (Epoch: 31 May)

Event Time Altitude Azimuth Distance (km) Brightness Sun altitude
Rises 04:31:20 0° 200° (SSW) 3,653 7.5 -23.6°
Reaches altitude 10° 04:33:53 10° 198° (SSW) 2,717 6.7 -24.1°
Maximum altitude 04:40:13 71° 116° (ESE) 1,039 4.4 -25.2°
Drops below altitude 10° 04:46:38 10° 34° (NE) 2,759 6.8 -26.3°
Sets 04:49:14 0° 32° (NNE) 3,714 7.5 -26.7°
